Погода в Ивантеевке

Россия / Саратовская область     52°16′03″N   49°06′09″E
темп.,
°C
ветер,
м/с
пор.,
м/с
влажн.,
%
обл.,
%
осадки,
мм/ч
давл.,
гПа
погр.,
м
24 сентября, пт
пт2401:00+12юв81671100 1.8 1013845
04:00+13юв81570100 1.8 1012671
07:00+13юв3965100 0.0 1012252
10:00+12ююв81376100 0.4 1013629
13:00+13юв51062100 1.1 1014551
16:00+13в4953100 1.6 1012321
19:00+14в71450100 0.1 1012484
22:00+10всв61166100 0.4 1011267
25 сентября, сб
сб2501:00+10св4969100 0.4 1009262
04:00+11с3365100 0.4 100773
07:00+8сз468013 0.0 1007140
10:00+13сз44585 0.0 1008437
13:00+16зсз55515 0.0 1008944
16:00+16зсз565017 0.0 10081312
19:00+13зсз4866100 0.0 1010281
22:00+11зсз377790 0.0 1010171
26 сентября, вс
вс2601:00+10зсз3781100 0.0 1009168
04:00+8зсз3787100 0.0 1010145
07:00+8сз3786100 0.0 1009170
10:00+12зсз3366100 0.0 1009444
13:00+16зсз345013 0.0 10081173
16:00+17зсз334379 0.0 10081512
19:00+13с225787 0.0 100818
22:00+11ссв227064 0.0 100727
27 сентября, пн
пн2701:00+10св228134 0.0 100724
04:00+9ссв468663 0.0 1007146
07:00+8ссв478793 0.0 1007169
10:00+12ссв6764100 0.0 1008529
13:00+14ссв675899 0.0 1009942
16:00+14всв7758100 0.0 10101283
19:00+9св6978100 0.6 10141078
22:00+8ссв4775100 0.6 1016332
28 сентября, вт
вт2801:00+6ссв488776 0.0 1017209
04:00+5ссв378186 0.0 1019147
07:00+4ссв48815 0.0 1021185
10:00+8св56475 0.0 1022635
13:00+11св44375 0.0 10221268
16:00+11ссв553890 0.0 10231352
19:00+7с375197 0.0 1024132
22:00+5ссв365887 0.0 1025136